Vorticity
5 6 4 3 4 7 10 12 10 7 8 9 6 8 12 12 15 6 4 3 3 7 7 5 7 6 8 5 3 4 1 2 1 -6 5 42 8 0 -2 5 5 5 7 5 6
3 3 1 2 1 0 4 5 12 11 8 6 9 9 6 8 13 11 11 3 4 3 7 7 6 8 7 7 4 3 2 1 -12 5 -6 16 6 7 21 2 12 6 8 7 5
2 2 2 2 3 -1 2 4 8 9 11 12 8 9 9 7 6 7 13 7 4 3 4 7 8 7 8 8 7 4 2 1 2 5 -5 19 6 3 -1 5 8 4 6 7 6
2 3 5 3 -0 3 5 6 7 7 9 7 9 4 13 3 13 8 13 10 6 5 5 6 6 9 10 7 -2 14 2 3 1 4 6 35 -14 -8 -7 -2 2 7 5 7 6
2 0 2 1 1 2 3 7 8 8 9 7 7 7 3 8 10 7 10 9 8 6 5 5 6 6 12 3 3 18 2 7 7 6 11 43 -0 1 4 4 11 5 5 6 6
5 4 3 1 5 3 9 8 8 9 9 9 12 14 8 9 12 12 7 9 8 6 5 5 6 4 3 1 10 5 -4 8 -3 5 15 10 34 4 5 8 -3 4 4 5 6
4 2 2 6 5 9 12 7 9 9 10 11 14 18 21 5 9 8 7 9 10 6 5 5 6 5 7 8 9 2 6 9 7 6 3 44 0 2 3 18 3 4 4 3 7
7 10 9 7 8 11 10 9 10 10 12 18 19 17 25 23 16 6 12 14 10 7 6 5 4 4 3 9 12 15 6 3 -0 1 0 19 2 5 -2 -9 4 5 3 4 8
9 9 8 6 10 11 10 10 9 14 13 12 9 8 14 22 20 18 17 12 11 8 7 5 7 5 6 8 8 -2 5 3 48 -5 24 -11 6 3 6 4 4 4 5 4 7
9 7 7 13 10 10 11 10 12 11 15 14 13 13 12 10 18 22 21 15 14 10 8 6 6 4 6 3 -10 21 14 -9 1 -2 53 -1 7 9 2 7 2 5 5 5 7
8 11 12 10 8 10 11 12 13 18 11 13 26 23 19 17 16 19 22 17 13 9 9 8 6 7 9 0 11 5 4 1 -2 22 27 20 5 4 2 7 3 5 6 6 6
10 9 11 9 12 11 13 13 14 9 9 30 22 30 22 24 21 19 19 18 13 10 12 9 4 13 6 8 -7 -3 14 -18 22 -5 27 20 6 -13 9 -6 9 7 8 5 4
10 9 10 9 12 12 14 11 10 8 22 -15 21 16 21 24 22 21 20 18 14 12 10 7 4 18 6 8 2 2 7 15 13 -18 -9 21 34 -4 6 0 -4 0 19 4 5
8 7 9 13 12 14 10 10 9 13 2 -1 18 19 18 20 22 23 18 15 14 11 12 8 9 7 8 8 -5 8 0 1 8 0 13 -2 32 49 21 5 2 -9 1 9 6
9 8 10 15 14 10 10 11 21 17 17 15 19 26 7 18 20 32 18 17 8 7 14 14 15 8 13 14 7 -7 -3 -5 27 -3 35 -2 23 10 41 -0 21 17 -3 9 7
10 8 11 14 11 8 11 18 14 26 11 8 11 11 4 -2 11 31 19 17 6 1 5 11 18 8 6 6 33 -14 -5 8 10 -2 -1 -3 27 27 30 27 21 6 4 23 15
10 10 14 16 7 9 11 14 8 6 15 -2 10 3 2 10 -8 31 24 13 20 11 10 1 6 -2 -2 9 1 -14 3 25 30 10 -11 3 6 -14 22 25 12 55 30 2 25
12 10 15 13 7 9 12 1 30 -1 -5 4 8 2 25 27 15 15 29 15 15 8 10 26 13 -6 13 21 14 -21 -3 -37 5 54 -20 -15 13 7 13 50 36 23 21 -19 -9
13 11 18 9 5 7 20 6 15 -3 28 2 -4 4 4 23 4 -9 20 26 18 -7 -2 9 22 5 8 16 -6 14 24 31 13 -9 17 -5 27 16 6 12 -1 50 6 11 16
14 11 21 6 5 7 9 7 16 27 24 13 -9 15 16 18 9 14 1 9 1 5 1 16 8 2 -3 18 12 -7 -11 11 14 6 -2 -27 -24 60 2 13 -4 24 32 16 8
14 14 20 13 8 3 16 0 7 32 -3 13 -0 13 29 1 -11 19 14 11 8 -3 2 11 22 16 -0 3 33 14 -7 -12 -5 21 9 10 2 3 1 49 4 7 18 12 52
14 13 16 14 5 6 7 -1 5 12 24 17 -5 -5 8 -21 20 14 8 -33 -2 -3 20 -6 1 10 -5 3 10 39 18 -8 -1 -4 4 -5 14 7 6 9 56 6 4 8 1
11 14 18 9 -2 15 -0 4 19 9 3 11 24 13 -11 10 -9 4 21 -3 16 14 16 28 2 4 -1 10 8 9 41 26 22 12 4 -3 5 1 8 -3 64 -0 -6 16 -3
14 9 14 16 13 -16 1 17 5 13 6 14 8 4 14 4 20 25 6 10 13 29 10 23 26 -19 -12 2 6 4 -1 15 6 4 23 -1 -5 -2 3 11 9 28 14 7 1
11 7 11 3 7 -2 3 7 10 -2 9 9 12 12 10 9 3 7 5 23 1 8 30 0 21 26 -3 -16 0 -3 9 22 -6 7 5 21 -0 9 13 22 5 -1 23 -7 9
13 13 16 4 29 1 12 20 -0 4 11 1 12 17 14 11 7 14 9 21 -2 14 7 25 34 7 19 18 16 3 18 8 9 2 2 -5 -3 8 7 10 25 -3 -11 14 6
17 7 9 10 16 21 -0 6 8 10 3 4 5 5 7 11 36 8 10 7 7 9 2 9 17 31 3 5 -15 30 7 4 5 31 -0 -7 1 5 13 10 -7 24 13 128 28
Height
5891 5889 5887 5885 5883 5881 5879 5878 5876 5875 5874 5873 5873 5872 5873 5873 5875 5878 5879 5881 5881 5882 5884 5885 5886 5887 5889 5892 5895 5896 5897 5894 5888 5893 5897 5896 5896 5895 5897 5898 5900 5902 5904 5903 5905
5890 5888 5885 5883 5881 5879 5877 5876 5874 5872 5871 5870 5870 5870 5869 5869 5871 5872 5876 5876 5878 5879 5881 5883 5884 5885 5887 5890 5893 5895 5895 5894 5891 5891 5895 5897 5897 5897 5899 5900 5900 5903 5907 5904 5904
5887 5885 5883 5880 5878 5876 5874 5872 5870 5868 5867 5866 5865 5866 5866 5866 5867 5867 5870 5872 5874 5876 5878 5879 5882 5883 5885 5887 5890 5893 5894 5894 5895 5892 5892 5898 5896 5896 5902 5901 5903 5905 5906 5908 5908
5884 5882 5879 5877 5874 5872 5869 5867 5864 5863 5861 5860 5860 5860 5861 5861 5864 5865 5867 5868 5870 5873 5875 5876 5879 5881 5882 5884 5886 5891 5891 5892 5895 5894 5893 5894 5899 5896 5897 5902 5903 5906 5907 5909 5909
5881 5878 5876 5873 5870 5867 5864 5861 5858 5855 5854 5853 5853 5853 5853 5855 5857 5858 5859 5862 5866 5869 5871 5873 5875 5878 5878 5881 5884 5886 5890 5892 5893 5893 5892 5888 5890 5895 5896 5901 5904 5907 5909 5910 5911
5877 5874 5871 5868 5865 5861 5857 5854 5851 5848 5846 5844 5843 5843 5843 5845 5850 5854 5854 5856 5859 5863 5866 5870 5872 5873 5874 5877 5882 5885 5889 5891 5894 5892 5889 5891 5888 5892 5899 5903 5907 5906 5909 5911 5912
5872 5869 5866 5863 5859 5855 5850 5846 5842 5839 5836 5834 5833 5832 5833 5835 5839 5844 5844 5848 5852 5857 5861 5865 5867 5869 5871 5875 5879 5885 5886 5888 5891 5890 5889 5891 5886 5892 5901 5901 5905 5906 5910 5911 5912
5868 5864 5861 5858 5853 5848 5843 5839 5834 5830 5827 5824 5823 5822 5822 5825 5827 5832 5834 5840 5844 5851 5855 5859 5861 5863 5867 5872 5877 5877 5880 5883 5885 5888 5889 5892 5889 5896 5901 5902 5905 5907 5909 5912 5913
5863 5859 5856 5852 5847 5841 5836 5831 5827 5823 5820 5818 5816 5815 5816 5815 5818 5821 5828 5832 5836 5843 5849 5853 5859 5860 5865 5869 5872 5869 5875 5878 5878 5884 5886 5889 5890 5892 5897 5900 5904 5905 5909 5911 5914
5859 5855 5851 5846 5840 5835 5829 5825 5820 5817 5814 5812 5810 5809 5808 5810 5810 5813 5819 5825 5831 5836 5842 5847 5853 5856 5861 5864 5873 5869 5874 5876 5877 5880 5881 5884 5889 5891 5892 5896 5901 5903 5907 5911 5914
5855 5850 5845 5840 5834 5829 5824 5820 5817 5814 5810 5806 5803 5800 5800 5803 5804 5806 5812 5817 5824 5829 5836 5844 5849 5855 5861 5867 5870 5871 5874 5872 5873 5874 5877 5878 5884 5887 5891 5895 5897 5899 5903 5909 5911
5850 5845 5840 5834 5829 5824 5819 5815 5812 5810 5806 5802 5799 5796 5794 5795 5798 5800 5806 5814 5819 5828 5834 5839 5845 5853 5860 5859 5865 5870 5870 5872 5871 5872 5873 5875 5880 5885 5888 5892 5895 5897 5900 5905 5909
5845 5840 5835 5830 5824 5820 5816 5812 5809 5806 5803 5801 5796 5794 5792 5792 5794 5798 5803 5810 5816 5824 5831 5836 5845 5851 5857 5855 5861 5863 5866 5869 5871 5872 5871 5873 5875 5878 5884 5887 5892 5893 5897 5901 5907
5841 5836 5831 5826 5822 5816 5813 5811 5808 5803 5801 5800 5796 5792 5792 5791 5793 5797 5802 5809 5814 5822 5829 5835 5841 5845 5855 5858 5858 5858 5864 5864 5864 5871 5869 5870 5871 5872 5878 5884 5887 5890 5894 5898 5904
5837 5832 5827 5821 5818 5815 5813 5809 5805 5803 5802 5798 5795 5795 5795 5796 5797 5799 5802 5807 5811 5820 5827 5836 5839 5842 5850 5856 5855 5856 5860 5861 5863 5869 5868 5868 5869 5871 5873 5876 5883 5886 5890 5897 5903
5834 5828 5824 5819 5815 5814 5810 5807 5805 5803 5802 5803 5802 5799 5799 5798 5800 5803 5805 5810 5811 5815 5823 5831 5838 5844 5848 5854 5850 5852 5858 5860 5861 5868 5869 5867 5867 5865 5867 5872 5879 5882 5888 5895 5899
5830 5825 5821 5817 5814 5812 5809 5807 5805 5802 5806 5806 5804 5802 5801 5800 5800 5804 5807 5811 5816 5819 5824 5831 5835 5840 5846 5842 5847 5855 5858 5859 5860 5863 5861 5863 5865 5865 5865 5868 5871 5875 5884 5890 5897
5827 5823 5819 5816 5813 5811 5809 5807 5803 5805 5808 5806 5806 5804 5804 5802 5803 5806 5809 5813 5818 5820 5826 5833 5835 5837 5842 5846 5848 5853 5855 5855 5857 5860 5863 5864 5863 5864 5863 5865 5865 5871 5879 5887 5893
5824 5820 5818 5815 5812 5810 5809 5809 5805 5805 5806 5806 5806 5804 5805 5804 5807 5809 5813 5818 5821 5823 5825 5827 5833 5837 5841 5847 5849 5854 5853 5856 5856 5858 5864 5863 5859 5860 5861 5862 5865 5868 5875 5884 5890
5822 5818 5816 5814 5810 5809 5808 5805 5805 5804 5805 5805 5805 5805 5807 5807 5807 5810 5811 5814 5818 5820 5819 5824 5828 5833 5837 5841 5846 5849 5853 5855 5855 5859 5862 5860 5856 5859 5860 5860 5863 5868 5873 5879 5884
5820 5816 5815 5812 5809 5808 5806 5804 5805 5805 5806 5807 5805 5805 5806 5807 5807 5806 5808 5810 5814 5816 5821 5823 5829 5832 5838 5838 5844 5847 5851 5853 5856 5857 5859 5860 5859 5861 5862 5863 5862 5866 5867 5876 5881
5817 5815 5812 5810 5809 5807 5805 5805 5806 5805 5805 5805 5805 5804 5804 5805 5804 5807 5809 5810 5813 5814 5817 5822 5825 5827 5830 5836 5839 5843 5847 5851 5853 5857 5858 5859 5860 5864 5863 5864 5862 5865 5868 5873 5879
5813 5811 5811 5808 5808 5806 5804 5805 5805 5804 5803 5803 5802 5802 5802 5805 5806 5804 5805 5809 5809 5810 5814 5821 5824 5825 5828 5831 5832 5837 5841 5845 5848 5852 5854 5854 5857 5860 5862 5862 5863 5867 5867 5871 5876
5810 5809 5808 5806 5806 5806 5804 5804 5803 5802 5801 5802 5803 5803 5802 5802 5803 5802 5804 5806 5806 5806 5811 5815 5819 5823 5823 5826 5829 5832 5835 5837 5842 5846 5852 5856 5856 5858 5859 5862 5866 5866 5868 5871 5872
5806 5804 5803 5803 5801 5802 5802 5803 5802 5800 5800 5800 5800 5800 5801 5801 5800 5801 5800 5800 5802 5802 5806 5808 5812 5816 5817 5820 5823 5828 5830 5833 5834 5837 5841 5850 5853 5853 5857 5861 5865 5868 5868 5869 5870
5803 5802 5800 5798 5799 5799 5800 5799 5799 5796 5800 5798 5798 5798 5798 5798 5798 5798 5798 5799 5799 5800 5802 5803 5807 5807 5810 5812 5819 5821 5822 5828 5823 5830 5838 5839 5843 5845 5851 5854 5861 5868 5869 5868 5867
5800 5797 5797 5797 5796 5797 5797 5795 5793 5796 5798 5796 5797 5796 5795 5796 5795 5796 5796 5797 5796 5797 5800 5801 5802 5802 5805 5806 5811 5812 5814 5819 5820 5827 5831 5832 5836 5840 5847 5850 5855 5857 5856 5834 5855